           7 18  17 06.76  -01 15.2   5.326  5.438    10.5 /  20  14.0   31  .33

           8 18  17 07.00  -01 05.3   5.308  5.435    10.5 /  19  14.0   41  .24

           9 18  17 07.22  -00 55.4   5.290  5.433    10.6 /  18  14.0   51  .16

          10 18  17 07.44  -00 45.3   5.273  5.431    10.6 /  17  14.0   62  .10

          11 18  17 07.65  -00 35.2   5.256  5.429    10.6 /  16  14.0   73  .05

          12 18  17 07.84  -00 24.9   5.238  5.426    10.7 /  15  13.9   84  .02

          13 18  17 08.02  -00 14.6   5.221  5.424    10.7 /  14  13.9   95  .00

          14 18  17 08.19  -00 04.3   5.204  5.422    10.7 /  13  13.9  106  .01

          15 18  17 08.35  +00 06.2   5.187  5.420    10.8 /  12  13.9  117  .03

          16 18  17 08.49  +00 16.7   5.170  5.418    10.8 /  11  13.9  127  .06

          17 18  17 08.63  +00 27.3   5.153  5.416    10.8 /  10  13.9  137  .12

          18 18  17 08.75  +00 38.0   5.136  5.413    10.9 /   9  13.9  147  .19

          19 18  17 08.86  +00 48.8   5.119  5.411    10.9 /   8  13.9  154  .27

          20 18  17 08.96  +00 59.6   5.102  5.409    11.0 /   7  13.9  157  .36

          21 18  17 09.04  +01 10.5   5.086  5.407    11.0 /   6  13.9  153  .46

          22 18  17 09.11  +01 21.4   5.069  5.405    11.1 /   5  13.9  145  .57

          23 18  17 09.17  +01 32.5   5.053  5.403    11.1 /   4  13.8  135  .68

          24 18  17 09.22  +01 43.6   5.037  5.401    11.2 /   3  13.8  123  .78

          25 18  17 09.25  +01 54.7   5.021  5.399    11.2 /   2  13.8  110  .87

          26 18  17 09.27  +02 05.9   5.005  5.397    11.3 /   1  13.8   96  .94

          27 18  17 09.28  +02 17.2   4.989  5.394    11.3 / 360  13.8   82  .98

          28 18  17 09.28  +02 28.5   4.973  5.392    11.4 / 359  13.8   68 1.00

          29 18  17 09.26  +02 39.9   4.958  5.390    11.5 / 358  13.8   55  .98

          30 18  17 09.23  +02 51.4   4.942  5.388    11.5 / 357  13.8   43  .94

          31 18  17 09.19  +03 02.9   4.927  5.386    11.6 / 356  13.8   33  .87

     Apr.  1 18  17 09.14  +03 14.4   4.912  5.384    11.6 / 355  13.8   26  .79

NAKANO

         **** Don't distribute anyone except personal use only ****

                (C) Copyright 2002 OAA/ComputingSection

write mail from CFAD0::NAKANO on 2002-02-17 02:04:56(JST).

 

    C/2001 K5 (LINEAR) 

Epoch 2002 Oct. 13.0 TT = JDT 2452560.5  

T 2002 Oct. 11.79303 TT                                 Nakano

q   5.1839834            (2000.0)            P               Q

z  +0.0001153      Peri.   47.05970     -0.18175610     +0.56557480

 +/-0.0000149      Node   237.46221     -0.91286094     +0.20708243

e   0.9994023      Incl.   72.59072     +0.36558122     +0.79827440

From 218 observations 2001 Apr. 30-Sept. 20, mean residual 0".55.



NAKANO

         **** Don't distribute anyone except personal use only ****

                (C) Copyright 2001 OAA/ComputingSection

write mail from CFAD0::NAKANO on 2001-10-02 04:10:33(JST).

 

    C/2001 K5 (LINEAR) 

Epoch 2002 Oct. 13.0 TT = JDT 2452560.5  

T 2002 Oct. 11.85378 TT                                 Nakano

q   5.1830413            (2000.0)            P               Q

z  +0.0000971      Peri.   47.07565     -0.18154298     +0.56566814

 +/-0.0000190      Node   237.46266     -0.91282657     +0.20732009

e   0.9994969      Incl.   72.58582     +0.36577288     +0.79814656

From 213 observations 2001 Apr. 30-Aug. 23, mean residual 0".54.



NAKANO

         **** Don't distribute anyone except personal use only ****

                (C) Copyright 2001 OAA/ComputingSection

write mail from CFAD0::NAKANO on 2001-08-29 00:52:52(JST).

 

    C/2001 K5 (LINEAR) 

T 2002 Oct. 12.14287 TT                                 Nakano

q   5.1800394            (2000.0)            P               Q

                   Peri.   47.13501     -0.18087762     +0.56577872

                   Node   237.47017     -0.91262803     +0.20833840

e   1.0            Incl.   72.58693     +0.36659700     +0.79780295

From 191 observations 2001 Apr. 30-July 25.



NAKANO

         **** Don't distribute anyone except personal use only ****

                (C) Copyright 2001 OAA/ComputingSection

write mail from CFAD0::NAKANO on 2001-07-31 23:54:42(JST).



◎C/2001 K5の軌道と予報位置です



 夕方の空に南中していますが,我が国からの7月の観測の報告はありません.



    C/2001 K5 (LINEAR) 

T 2002 Oct. 12.15783 TT                                 Nakano

q   5.1797678            (2000.0)            P               Q

                   Peri.   47.13922     -0.18081266     +0.56580991

                   Node   237.47036     -0.91262249     +0.20839862

e   1.0            Incl.   72.58488     +0.36664284     +0.79776510

From 186 observations 2001 Apr. 30-July 19.

 

Date/        TT  R.A.(2000) Decl.     Delta   r     Daily motion  Mag.  Moon Age

              h    h  m       。  ,                      ,  / PA 。  m1      。

2001 July 20 12  15 04.77  -17 17.4   5.727  6.162     5.6 / 352  16.2  115  .00

          21 12  15 04.71  -17 11.9   5.739  6.158     5.5 / 354  16.2  100  .01

          22 12  15 04.67  -17 06.4   5.751  6.154     5.4 / 355  16.2   85  .04

          23 12  15 04.64  -17 01.0   5.763  6.150     5.4 / 357  16.2   70  .11

          24 12  15 04.62  -16 55.6   5.774  6.146     5.3 / 359  16.2   55  .19

          25 12  15 04.61  -16 50.3   5.786  6.142     5.2 /   0  16.2   41  .29

          26 12  15 04.62  -16 45.1   5.799  6.139     5.1 /   2  16.2   27  .40

          27 12  15 04.63  -16 40.0   5.811  6.135     5.1 /   4  16.2   14  .51

          28 12  15 04.65  -16 34.9   5.823  6.131     5.0 /   6  16.2    3  .61

          29 12  15 04.69  -16 29.9   5.835  6.127     5.0 /   8  16.2   13  .71

          30 12  15 04.74  -16 25.0   5.848  6.123     4.9 /  10  16.2   26  .80

          31 12  15 04.79  -16 20.1   5.860  6.119     4.9 /  11  16.2   38  .87

     Aug.  1 12  15 04.86  -16 15.3   5.873  6.115     4.9 /  13  16.2   51  .93

           2 12  15 04.94  -16 10.6   5.885  6.112     4.8 /  15  16.2   63  .97

           3 12  15 05.03  -16 05.9   5.898  6.108     4.8 /  17  16.2   75  .99

           4 12  15 05.13  -16 01.3   5.910  6.104     4.8 /  19  16.2   87 1.00

           5 12  15 05.23  -15 56.7   5.923  6.100     4.8 /  21  16.2   98  .98

           6 12  15 05.35  -15 52.3   5.936  6.096     4.8 /  23  16.2  110  .95

           7 12  15 05.48  -15 47.8   5.948  6.092     4.8 /  25  16.2  122  .91

           8 12  15 05.63  -15 43.5   5.961  6.089     4.8 /  27  16.2  134  .84

           9 12  15 05.78  -15 39.2   5.974  6.085     4.8 /  29  16.2  146  .77

          10 12  15 05.94  -15 35.0   5.987  6.081     4.8 /  31  16.2  158  .68

          11 12  15 06.11  -15 30.8   5.999  6.077     4.9 /  33  16.2  170  .58

          12 12  15 06.29  -15 26.7   6.012  6.073     4.9 /  34  16.2  176  .48

          13 12  15 06.48  -15 22.7   6.025  6.070     4.9 /  36  16.2  164  .38

          14 12  15 06.68  -15 18.7   6.038  6.066     5.0 /  38  16.2  150  .28

          15 12  15 06.89  -15 14.8   6.051  6.062     5.0 /  40  16.2  136  .18

          16 12  15 07.11  -15 10.9   6.063  6.058     5.1 /  41  16.2  122  .10

          17 12  15 07.34  -15 07.1   6.076  6.054     5.1 /  43  16.2  107  .04

          18 12  15 07.58  -15 03.4   6.089  6.051     5.2 /  45  16.2   92  .01

          19 12  15 07.83  -14 59.7   6.101  6.047     5.2 /  46  16.2   77  .00

          20 12  15 08.09  -14 56.1   6.114  6.043     5.3 /  48  16.2   61  .03

NAKANO

         **** Don't distribute anyone except personal use only ****

                (C) Copyright 2001 OAA/ComputingSection

write mail from CFAD0::NAKANO on 2001-07-24 01:32:41(JST).

 

    C/2001 K5 (LINEAR) 

T 2002 Oct. 12.03940 TT                                 Nakano

q   5.1818628            (2000.0)            P               Q

                   Peri.   47.10653     -0.18132266     +0.56556293

                   Node   237.46886     -0.91266298     +0.20793290

e   1.0            Incl.   72.60132     +0.36629001     +0.79806171

From 139 observations 2001 Apr. 30-June 28.



NAKANO

         **** Don't distribute anyone except personal use only ****

                (C) Copyright 2001 OAA/ComputingSection

write mail from CFAD0::NAKANO on 2001-07-03 00:46:31(JST).

 





    C/2001 K5 (LINEAR) 

T 2002 Oct. 11.72772 TT                                 Nakano

q   5.1893542            (2000.0)            P               Q

                   Peri.   46.99849     -0.18310871     +0.56466613

                   Node   237.46302     -0.91275209     +0.20642391

e   1.0            Incl.   72.66454     +0.36517781     +0.79908781

From 82 observations 2001 Apr. 30-May 30.



NAKANO

         **** Don't distribute anyone except personal use only ****

                (C) Copyright 2001 OAA/ComputingSection

write mail from CFAD0::NAKANO on 2001-06-02 22:39:55(JST).

 

戻ります。